カタログに戻る

OBJECT D

運用中HEO
NORAD 100128·UNKNOWN·🇺🇸 United States

打ち上げ Jul 21, 2026 から Cape Canaveral Space Force Station

Loading…

次のパス (今後24時間)

TLE

最新Source: Space-Track

元期: Sep 11, 2026, 09:44 UTC

1 A0128U 26167D   26254.40589491  .00000056  00000-0  25800-2 0  9990
2 A0128  24.9714  86.1873 7615913 203.1991  84.8025  1.73402317   926

AllMySatでOBJECT Dをリアルタイム追跡

Download on the App Store